Paso Robles, CA

2:41 AM PST on December 12, 2017 (GMT -0800)
Paso Robles Municipal

Weather History for KPRB - September, 2012

Change the Weather History Date:

Sunday, September 23, 2012

  Actual Average Record
Temperature  
Mean Temperature 74 °F 68 °F  
Max Temperature 95 °F 87 °F 104 °F (2002)
Min Temperature 52 °F 49 °F 39 °F (2017)
Degree Days  
Heating Degree Days 0 1  
Month to date heating degree days 0 11  
Since 1 July heating degree days 4 19  
Cooling Degree Days 9 4  
Month to date cooling degree days 203 133  
Year to date cooling degree days 1034 866  
Growing Degree Days 23 (Base 50)    
Moisture  
Dew Point 37 °F    
Average Humidity 43    
Maximum Humidity 77    
Minimum Humidity 8    
Precipitation  
Precipitation 0.00 in 0.01 in 0.58 in (1958)
Month to date precipitation 0.00 0.13  
Year to date precipitation 5.88 9.03  
Since 1 July precipitation 0.01  
Sea Level Pressure  
Sea Level Pressure 29.93 in    
Wind  
Wind Speed 5 mph (SSW)    
Max Wind Speed 18 mph    
Max Gust Speed 22 mph    
Visibility 10 miles    
Events      
T = Trace of Precipitation, MM = Missing Value Source: NWS Daily Summary

Daily Weather History Graph

Daily Weather History Graph

Search for Another Location

Airport or City:

Trip Planner

Search our weather history database for the weather conditions in past years. The results will help you decide how hot, cold, wet, or windy it might be!

Date:

Astronomy

Sep. 23, 2012 Rise Set
Actual Time 6:51 AM PDT 6:57 PM PDT
Civil Twilight 6:26 AM PDT 7:22 PM PDT
Nautical Twilight 5:56 AM PDT 7:52 PM PDT
Astronomical Twilight 5:26 AM PDT 8:22 PM PDT
Moon 2:52 PM PDT (9/23) 12:20 AM PDT (9/23)
Length of Visible Light 12h 56m
Length of Day
12h 05m
First Quarter, 61% of the Moon is Illuminated
Sep 23
First Quarter
Sep 29
Full
Oct 8
Last Quarter
Oct 15
New
Oct 21
First Quarter

Hourly Weather History & Observations

Time (PDT) Temp. Dew Point Humidity Pressure Visibility Wind Dir Wind Speed Gust Speed Precip Events Conditions
12:53 AM 60.1 °F 48.9 °F 67% 29.92 in 10.0 mi North 3.5 mph - N/A   Clear
1:53 AM 57.9 °F 48.9 °F 72% 29.92 in 10.0 mi Calm Calm - N/A   Clear
2:53 AM 55.9 °F 48.0 °F 75% 29.91 in 10.0 mi Calm Calm - N/A   Clear
3:53 AM 55.0 °F 46.0 °F 72% 29.91 in 10.0 mi Calm Calm - N/A   Clear
4:53 AM 53.1 °F 45.0 °F 74% 29.92 in 10.0 mi Calm Calm - N/A   Clear
5:53 AM 55.0 °F 46.0 °F 72% 29.93 in 10.0 mi Calm Calm - N/A   Clear
6:53 AM 53.1 °F 45.0 °F 74% 29.94 in 10.0 mi SW 3.5 mph - N/A   Clear
7:53 AM 57.9 °F 46.9 °F 67% 29.96 in 10.0 mi Calm Calm - N/A   Clear
8:53 AM 64.0 °F 48.0 °F 56% 29.96 in 10.0 mi Calm Calm - N/A   Clear
9:53 AM 72.0 °F 48.0 °F 43% 29.96 in 10.0 mi Calm Calm - N/A   Clear
10:53 AM 79.0 °F 48.0 °F 34% 29.95 in 10.0 mi Calm Calm - N/A   Clear
11:53 AM 84.9 °F 46.9 °F 27% 29.94 in 10.0 mi Calm Calm - N/A   Clear
12:53 PM 93.0 °F 44.1 °F 18% 29.92 in 10.0 mi SW 12.7 mph 17.3 mph N/A   Clear
1:53 PM 93.0 °F 41.0 °F 16% 29.91 in 10.0 mi SW 10.4 mph - N/A   Clear
2:53 PM 93.0 °F 39.9 °F 16% 29.90 in 10.0 mi SSW 13.8 mph - N/A   Clear
3:53 PM 93.0 °F 36.0 °F 13% 29.90 in 10.0 mi WSW 18.4 mph 21.9 mph N/A   Clear
4:53 PM 88.0 °F 24.1 °F 10% 29.91 in 10.0 mi SW 16.1 mph - N/A   Clear
5:53 PM 84.0 °F 17.1 °F 8% 29.92 in 10.0 mi SSW 9.2 mph - N/A   Clear
6:53 PM 80.1 °F 19.0 °F 10% 29.93 in 10.0 mi South 6.9 mph - N/A   Clear
7:53 PM 75.0 °F 23.0 °F 14% 29.94 in 10.0 mi South 8.1 mph - N/A   Clear
8:53 PM 73.9 °F 21.0 °F 14% 29.94 in 10.0 mi South 8.1 mph - N/A   Clear
9:53 PM 66.9 °F 23.0 °F 19% 29.95 in 10.0 mi SSE 5.8 mph - N/A   Clear
10:53 PM 64.9 °F 21.0 °F 19% 29.95 in 10.0 mi Calm Calm - N/A   Clear
11:53 PM 63.0 °F 24.1 °F 23% 29.94 in 10.0 mi Calm Calm - N/A   Clear